This is the latest recevied weather packets stored in our database for station/object AI5ON. If no packets are shown the sender has not sent any weather packets the latest 10 day(s).
| Time | Temp. | Humidity | Pressure | Rain* | Wind** | Luminosity | Snow |
|---|---|---|---|---|---|---|---|
| 1787921115 | 25.56° C | 98% | 1016.5 hPa | 0 mm | - | 88 W/m² | - |
| 1787920810 | 25.56° C | 99% | 1016.6 hPa | 0 mm | - | 47 W/m² | - |
| 1787920510 | 25° C | 99% | 1016.5 hPa | 0 mm | - | 43 W/m² | - |
| 1787920209 | 25° C | 99% | 1016.3 hPa | 0 mm | - | 51 W/m² | - |
| 1787919903 | 25° C | 99% | 1016.2 hPa | 0 mm | - | 45 W/m² | - |
| 1787919601 | 25° C | 99% | 1016 hPa | 0 mm | - | 38 W/m² | - |
| 1787919297 | 24.44° C | 99% | 1016 hPa | 0 mm | - | 31 W/m² | - |
| 1787918992 | 24.44° C | 99% | 1016.2 hPa | 0 mm | - | 25 W/m² | - |
| 1787918687 | 24.44° C | 99% | 1016.1 hPa | 0 mm | - | 20 W/m² | - |
| 1787918384 | 23.89° C | 99% | 1016.2 hPa | 0 mm | - | 15 W/m² | - |
| 1787918080 | 23.89° C | 99% | 1016.1 hPa | 0 mm | - | 11 W/m² | - |
| 1787917775 | 23.89° C | 99% | 1015.9 hPa | 0 mm | - | 7 W/m² | - |
| 1787917471 | 23.89° C | 99% | 1015.9 hPa | 0 mm | - | 4 W/m² | - |
| 1787917167 | 23.89° C | 99% | 1016.1 hPa | 0 mm | - | 2 W/m² | - |
| 1787916866 | 23.89° C | 99% | 1015.9 hPa | 0 mm | - | 1 W/m² | - |
| 1787916566 | 23.89° C | 99% | 1015.6 hPa | 0 mm | - | 0 W/m² | - |
| 1787916261 | 23.89° C | 99% | 1015.7 hPa | 0 mm | - | 0 W/m² | - |
| 1787915956 | 23.89° C | 99% | 1015.7 hPa | 0 mm | - | 0 W/m² | - |
| 1787915652 | 23.89° C | 99% | 1015.8 hPa | 0 mm | - | 0 W/m² | - |
| 1787915352 | 23.89° C | 99% | 1015.6 hPa | 0 mm | - | 0 W/m² | - |
| 1787915047 | 23.89° C | 99% | 1015.6 hPa | 0 mm | - | 0 W/m² | - |
| 1787914745 | 23.89° C | 99% | 1015.6 hPa | 0 mm | - | 0 W/m² | - |
| 1787914440 | 23.89° C | 99% | 1015.6 hPa | 0 mm | - | 0 W/m² | - |
| 1787914135 | 23.89° C | 99% | 1015.6 hPa | 0 mm | - | 0 W/m² | - |
| 1787913834 | 23.89° C | 99% | 1015.5 hPa | 0 mm | - | 0 W/m² | - |
* Rain latest hour (hover to see other rain measurements)
** Current wind speed in m/s (hover to see current wind gust speed)